This is the latest recevied weather packets stored in our database for station/object HK6RM-17. If no packets are shown the sender has not sent any weather packets the latest 10 day(s).
| Time | Temp. | Humidity | Pressure | Rain* | Wind** | Luminosity | Snow |
|---|---|---|---|---|---|---|---|
| 1777658703 | 19.44° C | 74% | 1012 hPa | 0 mm | - | - | - |
| 1777658103 | 19.44° C | 72% | 1012 hPa | 0 mm | - | - | - |
| 1777657502 | 19.44° C | 72% | 1012 hPa | 0 mm | - | - | - |
| 1777656902 | 20° C | 72% | 1013 hPa | 0 mm | - | - | - |
| 1777656302 | 20° C | 72% | 1013 hPa | 0 mm | - | - | - |
| 1777655701 | 20° C | 72% | 1013 hPa | 0 mm | - | - | - |
| 1777655101 | 20° C | 72% | 1013 hPa | 0 mm | - | - | - |
| 1777654500 | 20° C | 71% | 1013 hPa | 0 mm | - | - | - |
| 1777653898 | 20.56° C | 71% | 1013 hPa | 0 mm | - | - | - |
| 1777653296 | 21.11° C | 71% | 1013 hPa | 0 mm | - | - | - |
| 1777652694 | 20° C | 73% | 1013 hPa | 0 mm | - | - | - |
| 1777652093 | 20° C | 73% | 1013 hPa | 0 mm | - | - | - |
| 1777651492 | 20.56° C | 73% | 1013 hPa | 0 mm | - | - | - |
| 1777650891 | 20.56° C | 73% | 1013 hPa | 0 mm | - | - | - |
| 1777650290 | 18.89° C | 68% | 1013 hPa | 0 mm | - | - | - |
| 1777649690 | 18.89° C | 68% | 1013 hPa | 0 mm | - | - | - |
| 1777649089 | 19.44° C | 68% | 1014 hPa | 0 mm | - | - | - |
| 1777648489 | 20° C | 68% | 1014 hPa | 0 mm | - | - | - |
| 1777647888 | 20° C | 68% | 1014 hPa | 0 mm | - | - | - |
| 1777647288 | 20.56° C | 68% | 1014 hPa | 0 mm | - | - | - |
| 1777646687 | 21.11° C | 68% | 1014 hPa | 0 mm | - | - | - |
| 1777646087 | 18.89° C | 65% | 1014 hPa | 0 mm | - | - | - |
| 1777645486 | 18.33° C | 63% | 1015 hPa | 0 mm | - | - | - |
| 1777644886 | 18.89° C | 63% | 1015 hPa | 0 mm | - | - | - |
| 1777644283 | 18.89° C | 63% | 1015 hPa | 0 mm | - | - | - |
* Rain latest hour (hover to see other rain measurements)
** Current wind speed in m/s (hover to see current wind gust speed)